Orbital Elements at Epoch 2459200.5 (2020-Dec-17.0) TDB
Reference: JPL 14 (heliocentric ecliptic J2000)
Element | Value | Uncertainty (1-sigma) | Units |
e | .1841228780779681 | 4.2164e-08 | |
a | 2.378957912313444 | 1.328e-08 | au |
q | 1.940937334671938 | 1.0324e-07 | au |
i | 2.318956885058619 | 5.0861e-06 | deg |
node | 54.91045444265343 | 0.00012894 | deg |
peri | 345.3360250223711 | 0.00012998 | deg |
M | 277.0805382754874 | 1.9177e-05 | deg |
tp | 2459509.197092019188 (2021-Oct-21.69709202) | 7.3174e-05 | TDB |
period | 1340.227623475459 3.67 | 1.1222e-05 3.072e-08 | d yr |
n | .2686110879183741 | 2.2492e-09 | deg/d |
Q | 2.816978489954949 | 1.5725e-08 | au |
|
| | Orbit Determination Parameters
Additional Information
|